Simultaneous Nadir Overpasses (SNOs) Predictions

Prediction of SNOs between NOAA-19 and TERRA Satellite Orbit:

Table of predicted SNOs for the next 14.0 days since TLE Epoch: 9/6/2014
Index Date (NOAA-19) Time (NOAA-19) Lat,Lon (NOAA-19) SZA (NOAA-19 ) Date (TERRA) Time (TERRA) Lat,Lon (TERRA) SZA (TERRA ) Distance(km) Time Diff (sec)
1 09/06/2014 11:54:03 70.87, 3.45 64.42 09/06/2014 11:54:14 70.89, 3.48 64.44 2.68 11
2 09/06/2014 12:44:59 -70.65, 171.07 115.78 09/06/2014 12:43:45 -70.72, 170.85 115.73 10.69 74
3 09/08/2014 16:37:50 70.89, -67.50 65.27 09/08/2014 16:38:31 70.90, -67.57 65.28 2.89 41
4 09/08/2014 17:28:48 -70.81, 99.89 114.81 09/08/2014 17:28:01 -70.79, 99.89 114.83 1.86 47
5 09/10/2014 21:21:38 70.96,-138.55 66.17 09/10/2014 21:22:47 70.96,-138.55 66.18 0.32 69
6 09/10/2014 22:12:35 -70.86, 28.89 113.92 09/10/2014 22:12:17 -70.85, 28.91 113.93 0.80 18
7 09/13/2014 02:56:22 -70.91, -42.11 113.03 09/13/2014 02:56:33 -70.90, -42.09 113.04 1.13 11
8 09/13/2014 03:47:17 70.40, 125.97 66.49 09/13/2014 03:46:06 70.47, 124.90 66.53 40.65 71
9 09/15/2014 07:40:09 -70.96,-113.12 112.13 09/15/2014 07:40:49 -70.94,-113.09 112.15 2.13 40
10 09/15/2014 08:31:12 70.84, 54.32 67.77 09/15/2014 08:30:16 70.83, 54.38 67.76 2.48 56
11 09/17/2014 12:23:55 -70.96, 175.96 111.28 09/17/2014 12:25:05 -70.98, 175.89 111.26 2.98 70
12 09/17/2014 13:14:59 70.87, -16.65 68.65 09/17/2014 13:14:32 70.86, -16.64 68.64 0.79 27
13 09/19/2014 17:58:46 70.90, -87.63 69.54 09/19/2014 17:58:48 70.88, -87.68 69.51 2.87 2




NCC Satellite Simultaneous Nadir Overpasses (SNOs) Prediction Service
